CZ-3B R/B (44979 NORAD) Tracking and Keplerian Element Data

This shows tracking and keplerian element data for the satellite.

Feedback or suggestion? Click here.




ElementValue
Catalog44979
NameCZ-3B R/B
Epoch Orbit23
Epoch Day17.48415009
Epoch Year2020
RAAN330.0943
Inclination27.4409
Eccentricity0.7234655
Argument of Perigee185.449
Mean Anonmoly156.984
Mean Motion2.38993508
Decay Rate0.00044393
L11 44979U 20002B 20017.48415009 .00044393 -38612-6 75113-3 0 9998
L22 44979 27.4409 330.0943 7234655 185.4490 156.9840 2.38993508 231

Live tracking and technical data element details for CZ-3B R/B (NORAD 44979). CZ-3B R/B can be tracked NOW for your location showing map with azimuth and elevation plus other details from your city location.

Track the satellite on the map from your city or location and see movement details for azimuth, elevation, latitude, longitude, range, height, and movement on the map or in text.







IsCatalogInMostPopularTable: catalog: 44979, numindb: 2
Update: records affected: 1



GetName: 44979 CZ-3B R/B

Hit Count: updated at: Mon, 20 Jan 2020 04:19:17 GMT